Location: La Ribi�re-Bayard
(46.2000°N, 1.6500°E)
Time: 08:21:16
(UTC+00:00)

Daily predictions for brighter satellites

Satellite Brightness Start Highest point End
(mag) Time Altitude Azimuth Time Altitude Azimuth Time Altitude Azimuth
Cosmos 1782 2.8 19:51:43 10° S 19:55:40 74° E 19:59:39 10° NNE
USA 308 3.0 19:51:37 10° WNW 19:55:55 83° SSW 20:00:12 10° SE
X-37B 3.3 19:58:34 10° SW 19:59:01 10° SW 19:59:30 10° SSW
Cosmos 1933 4.2 19:55:24 10° SSW 19:59:21 54° WNW 20:03:19 10° N
Cosmos 1500 3.3 19:58:08 10° N 20:01:50 56° E 20:05:29 10° SSE
Cosmos 1437 2.3 20:00:59 10° S 20:03:49 79° E 20:06:39 10° NNE
Meteor 1-5 Rocket 4.4 20:01:54 10° N 20:07:08 52° ENE 20:12:17 10° SSE
SJ-6B 3.9 20:04:10 10° S 20:07:58 46° W 20:11:52 10° NNW
ERS-2 3.8 20:06:46 10° N 20:10:10 39° WNW 20:13:33 10° SW
Terra 3.8 20:13:20 10° E 20:15:54 15° ENE 20:18:29 10° NNE
MetOp-B 4.5 20:11:43 10° SE 20:16:53 52° ENE 20:22:04 10° N
Cosmos 1515 Rocket 3.6 20:15:28 10° S 20:19:47 58° E 20:24:05 10° NNE
USA 267 4.4 20:16:31 10° SSE 20:22:20 34° SW 20:28:11 10° WNW
Cosmos 2228 Rocket 4.1 20:19:04 11° SE 20:22:38 28° E 20:26:27 10° NNE
Cosmos 1633 Rocket 3.8 20:18:34 10° NNW 20:22:53 54° W 20:27:12 10° S
Tianhe-1 2.3 20:20:43 10° SW 20:23:17 23° SSE 20:25:05 15° ESE
Cosmos 2315 Rocket 4.2 20:17:00 10° S 20:23:24 81° W 20:29:49 10° N
Resurs 01 Rocket 1.6 20:22:00 10° SSE 20:26:26 86° ENE 20:30:53 10° NNW
BREEZE M DEB (TANK) 2.3 20:24:08 10° WNW 20:29:12 62° N 20:31:13 12° E
SWARM A 4.2 20:27:10 10° N 20:30:28 64° E 20:33:27 12° S
Cosmos 2082 Rocket 2.2 20:25:09 10° NNW 20:30:47 73° ENE 20:35:40 14° SE
Cosmos 1328 Rocket 4.1 20:26:26 10° SSW 20:30:48 61° W 20:35:10 10° N
SPOT 1/Viking Rocket 3.8 20:27:48 12° SE 20:32:25 55° ENE 20:37:29 10° N
ERS-1 Rocket 4.1 20:29:27 13° ESE 20:33:07 29° ENE 20:37:25 10° N
USA 305 3.7 20:29:22 10° WNW 20:33:25 42° SW 20:36:40 15° SSE
Cosmos 1943 Rocket 3.3 20:35:05 14° SSE 20:38:33 24° ESE 20:42:57 10° NE
Spot 2 Rocket 3.9 20:35:19 15° SE 20:39:16 47° ENE 20:44:06 10° N
Cosmos 1538 Rocket 4.4 20:34:22 10° NNW 20:39:40 65° WSW 20:44:50 10° S
Cosmos 1470 Rocket 4.0 20:35:54 10° NNW 20:40:21 62° W 20:44:46 10° S
OBJECT-B 3.7 20:39:11 10° SW 20:41:04 15° W 20:42:58 10° NW
Meteor 1-10 Rocket 4.2 20:36:42 10° S 20:42:13 67° E 20:47:55 10° NNE
ERBS 3.8 20:39:23 10° NW 20:42:21 30° NNE 20:44:57 12° E
CARTOSAT-1 4.2 20:42:25 18° SE 20:45:18 42° ENE 20:49:23 10° N
Landsat 7 3.9 20:40:49 11° S 20:45:24 81° WSW 20:50:12 10° NNW
SPOT 5 3.9 20:42:26 16° SE 20:46:04 38° ENE 20:50:58 10° N
Cosmos 1536 3.6 20:42:46 10° N 20:46:32 36° ENE 20:48:43 20° SE
CZ-2C R/B 3.6 20:43:22 10° NNE 20:47:54 72° ESE 20:52:30 10° S
SPOT 3 Rocket 3.8 20:43:41 10° S 20:48:48 69° WSW 20:53:58 10° NNW
Cosmos 1271 Rocket 2.7 20:45:10 10° S 20:49:09 80° E 20:53:10 10° NNE
COSMOS 2406 4.2 20:47:15 10° NW 20:52:34 42° WSW 20:57:51 10° S
USA 306 4.1 20:49:14 10° WNW 20:53:00 31° SW 20:55:36 17° S
Cosmos 1680 Rocket 3.7 20:48:38 10° NNW 20:53:56 60° ENE 20:57:31 20° SE
Cosmos 1933 Rocket 3.8 20:49:46 10° NNW 20:54:05 68° W 20:57:58 13° S
ISS -3.9 20:50:50 10° SW 20:54:11 76° SSE 20:57:34 10° ENE
Cosmos 2278 Rocket 3.0 20:49:40 10° SW 20:55:11 54° WNW 21:00:46 10° NNE
SJ 16-02 2.1 20:53:24 10° SW 20:57:45 55° WNW 21:02:08 10° NNE
Cosmos 2084 Rocket 3.9 20:53:57 10° NNW 20:58:08 53° NE 21:00:52 21° ESE
Cosmos 1544 3.9 20:56:33 10° N 20:59:54 35° ENE 21:01:17 25° ESE
Cosmos 2369 Rocket 3.5 20:58:46 18° ESE 21:00:01 19° E 21:03:51 10° NE
IGS 5A 4.4 20:57:53 10° S 21:01:51 44° W 21:05:51 10° NNW
Cosmos 1666 3.5 21:02:59 10° NNW 21:06:34 47° W 21:09:29 14° SSW
JB-3 4.2 21:06:07 10° NNE 21:09:57 61° E 21:12:01 25° S
Cosmos 1733 Rocket 4.3 21:07:09 10° NNE 21:10:51 27° ENE 21:12:25 22° ESE
ARIANE 5 R/B 2.5 21:10:14 24° SSE 21:12:48 87° ENE 21:17:10 10° NNW
NOSS 3-4 (A) 4.3 21:10:08 10° NW 21:17:00 54° WSW 21:22:33 19° S
NOSS 3-4 (C) 4.3 21:10:14 10° NW 21:17:06 55° WSW 21:22:39 19° S
Iridium 4 Rocket 4.0 21:12:28 10° S 21:18:19 73° W 21:24:14 10° N
BREEZE-M DEB (TANK) 1.3 21:16:28 10° WNW 21:18:28 68° NNE 21:18:57 46° E
USA 245 3.0 21:18:30 34° SW 21:18:56 38° W 21:21:13 10° NNW
Cosmos 990 Rocket 4.0 21:18:32 10° SSW 21:23:47 87° WNW 21:29:05 10° NNE
Cosmos 1898 Rocket 3.5 21:21:38 11° SSW 21:26:46 81° ESE 21:32:08 10° NNE
Meteor 1-27 Rocket 3.9 21:24:44 12° SSW 21:30:14 82° W 21:36:13 10° N
ATLAS 2AS CENTAUR R/B 2.8 21:23:08 10° NW 21:30:27 71° WSW 21:34:29 26° SSE
SL-24 R/B - RUBIN 2 4.0 21:26:27 10° NW 21:31:49 67° WSW 21:34:02 32° SSE
Cosmos 44 3.7 21:28:04 10° NW 21:33:27 65° WSW 21:35:56 31° SSE
Cosmos 1818 3.5 21:30:39 10° NW 21:36:11 89° ENE 21:38:46 32° SE
Cosmos 2154 Rocket 4.2 21:30:26 10° NNW 21:36:44 72° W 21:40:59 22° S
Cosmos 1743 2.6 21:34:10 10° N 21:38:03 75° E 21:39:06 46° SSE
Nadezhda 1 Rocket 4.2 21:35:33 12° SSW 21:41:20 71° W 21:47:33 10° N
Cosmos 962 Rocket 4.4 21:35:27 10° N 21:41:35 76° E 21:44:46 30° SSE
Meteor 1-19 Rocket 4.5 21:43:17 33° SE 21:45:07 46° E 21:50:17 10° NNE
BREEZE-M R/B 2.7 21:45:07 10° WNW 21:47:29 46° NNE 21:47:59 39° NE
H-2A R/B 3.3 21:46:58 10° NNE 21:51:10 77° ESE 21:52:23 45° S
Terra 1.8 21:51:09 37° S 21:53:01 81° WSW 21:57:48 10° NNW
Cosmos 1461 3.1 21:50:19 13° SW 21:54:36 87° NW 21:59:15 10° NE
Gbstr 26 Del rocket 4.1 21:47:35 10° WNW 21:55:11 75° SSW 21:58:20 33° SE
Cosmos 1862 Rocket 3.5 21:57:49 50° SE 21:58:40 63° E 22:02:57 10° NNE
Cosmos 1340 Rocket 3.5 21:55:06 10° NNW 21:59:02 47° W 22:00:21 34° SW
Tianhe-1 3.6 21:56:33 10° WSW 21:57:05 14° WSW 21:57:05 14° WSW
Cosmos 2297 4.1 21:54:20 10° SW 21:59:59 63° WNW 22:05:39 10° NNE
Okean 1 3.2 22:00:55 58° S 22:01:37 81° E 22:05:37 10° N
Resurs 01 Rocket 4.4 22:02:42 10° W 22:03:32 10° W 22:04:21 10° WNW
ATLAS CENTAUR R/B 2.7 22:10:15 23° ENE 22:10:15 23° ENE 22:12:05 10° NE
Cosmos 1607 4.1 22:06:38 34° S 22:09:14 54° ESE 22:15:33 10° NE
ERS-1 Rocket 3.9 22:09:26 25° SSW 22:11:46 39° W 22:16:30 10° NNW
Cosmos 2082 Rocket 4.2 22:10:32 10° WNW 22:14:13 18° W 22:17:31 11° SW
Cosmos 1515 4.1 22:13:58 45° SW 22:14:46 57° W 22:18:31 10° N
Cosmos 2366 rocket 3.9 22:10:21 10° N 22:16:35 79° E 22:18:59 40° SSE
ERBS 3.5 22:15:24 10° WNW 22:17:42 32° W 22:17:42 32° W
Cosmos 2181 Rocket 3.9 22:16:13 36° S 22:18:55 86° E 22:25:05 10° N
Cosmos 1937 Rocket 4.3 22:17:04 14° SW 22:21:22 49° WNW 22:26:25 10° NNE
Cosmos 1943 Rocket 2.7 22:16:31 11° SW 22:21:54 57° WNW 22:27:25 10° NNE
SPOT 5 4.3 22:21:39 22° SW 22:24:07 33° W 22:28:55 10° NNW
Milstar 3 4.4 22:18:46 10° WSW 22:28:34 26° SSW 22:29:19 25° SSW
Cosmos 1867 3.4 22:28:40 39° SSW 22:30:44 80° ESE 22:36:14 10° NE
ISS -2.1 22:28:04 10° W 22:31:13 35° N 22:34:22 10° ENE
Cosmos 1656 Rocket 3.6 22:30:07 50° SSE 22:31:17 63° ESE 22:36:46 10° NNE
Spot 4 4.2 22:30:35 46° ESE 22:31:36 55° ENE 22:36:21 10° N
Cosmos 1238 Rocket 4.1 22:30:45 10° NNW 22:36:17 50° W 22:37:52 37° SW
Cosmos 1975 2.9 22:37:05 10° NNW 22:41:02 62° W 22:41:09 62° WSW
Cosmos 1048 Rocket 3.9 22:36:20 10° NNW 22:41:40 82° ENE 22:42:47 57° SSE
Cosmos 2369 Rocket 2.4 22:40:30 29° SW 22:43:24 70° WNW 22:49:05 10° NNE
Cosmos 2218 Rocket 4.3 22:40:03 10° NNW 22:46:16 63° W 22:48:38 38° SSW
Cosmos 2344 4.5 22:38:21 10° NW 22:47:27 72° NE 22:56:38 21° SE
ALOS 2 3.2 22:47:43 42° E 22:48:11 43° ENE 22:52:21 10° N
Cosmos 1733 Rocket 4.4 22:44:52 10° NNW 22:48:37 29° W 22:49:30 27° WSW
BREEZE-M DEB (TANK) 4.3 22:33:58 10° WNW 22:50:40 84° SSW 22:52:47 40° ESE
Okean 3 4.3 22:51:44 39° E 22:51:44 39° E 22:55:20 10° NNE
Lacrosse 5 2.8 22:54:17 33° E 22:54:17 33° E 22:57:43 10° ENE
RESURS DK-1 2.5 22:49:37 10° NNW 22:53:36 66° W 22:53:36 66° W
SL-27 R/B 3.2 22:50:28 10° NNW 22:53:02 49° N 22:53:02 49° N
Cosmos 1356 Rocket 3.8 22:53:23 10° N 22:57:38 54° ENE 22:57:43 53° E
Nadezhda 3 Rocket 4.0 22:59:44 49° SSE 23:01:19 68° E 23:07:28 10° NNE
Cosmos 1908 Rocket 4.1 23:04:27 10° NNW 23:08:45 49° W 23:09:03 48° WSW
Meteor 1-12 Rocket 4.2 23:05:12 10° N 23:11:04 82° ENE 23:12:18 57° SSE
Cosmos 2298 Rocket 4.2 23:09:55 46° SW 23:11:24 69° WNW 23:16:42 10° NNE
USA 215 4.3 23:06:18 10° E 23:12:23 43° NNE 23:18:28 10° NW
Thor Agena Rocket 4.3 23:10:24 10° NNE 23:15:20 39° E 23:15:40 38° ESE
Sich 1 Rocket 3.9 23:12:00 10° N 23:16:29 56° ENE 23:16:39 55° E
COSMOS 2455 4.0 23:12:19 10° NNW 23:17:53 37° NE 23:21:46 18° ESE
Cosmos 1805 4.0 23:15:03 10° N 23:18:27 45° ENE 23:18:27 45° ENE
[s.n.72151] 4.5 23:15:35 10° NW 23:19:50 51° NNE 23:21:20 34° ENE
[s.n.72757] 4.5 23:15:36 10° NW 23:19:51 51° NNE 23:21:20 35° ENE
[s.n.72237] 4.5 23:15:36 10° NW 23:19:51 51° NNE 23:21:20 35° ENE
[s.n.72222] 4.5 23:15:36 10° NW 23:19:51 51° NNE 23:21:21 35° ENE
[s.n.72252] 4.5 23:15:37 10° NW 23:19:52 52° NNE 23:21:21 35° ENE
[s.n.72221] 4.5 23:15:37 10° NW 23:19:52 52° NNE 23:21:21 35° ENE
[s.n.72220] 4.5 23:15:37 10° NW 23:19:52 52° NNE 23:21:21 35° ENE
[s.n.72241] 4.5 23:15:37 10° NW 23:19:52 52° NNE 23:21:22 35° ENE
[s.n.72240] 4.5 23:15:37 10° NW 23:19:52 52° NNE 23:21:22 35° ENE
[s.n.72246] 4.5 23:15:37 10° NW 23:19:52 52° NNE 23:21:22 35° ENE
[s.n.72256] 4.5 23:15:38 10° NW 23:19:53 52° NNE 23:21:22 35° ENE
[s.n.72238] 4.5 23:15:38 10° NW 23:19:53 52° NNE 23:21:22 35° ENE
[s.n.72215] 4.5 23:15:38 10° NW 23:19:53 52° NNE 23:21:22 35° ENE
[s.n.72250] 4.5 23:15:38 10° NW 23:19:53 52° NNE 23:21:23 35° ENE
[s.n.72255] 4.5 23:15:38 10° NW 23:19:53 52° NNE 23:21:23 35° ENE
[s.n.72253] 4.5 23:15:38 10° NW 23:19:53 52° NNE 23:21:23 35° ENE
[s.n.72249] 4.5 23:15:39 10° NW 23:19:54 52° NNE 23:21:23 35° ENE
[s.n.72214] 4.5 23:15:39 10° NW 23:19:54 52° NNE 23:21:24 35° ENE
[s.n.72145] 4.5 23:15:39 10° NW 23:19:54 52° NNE 23:21:24 35° ENE
[s.n.72242] 4.5 23:15:39 10° NW 23:19:54 52° NNE 23:21:24 35° ENE
[s.n.72155] 4.5 23:15:40 10° NW 23:19:55 52° NNE 23:21:24 35° ENE
[s.n.72248] 4.5 23:15:40 10° NW 23:19:55 52° NNE 23:21:24 35° ENE
[s.n.72166] 4.5 23:15:40 10° NW 23:19:55 52° NNE 23:21:25 35° ENE
[s.n.72219] 4.5 23:15:40 10° NW 23:19:55 52° NNE 23:21:25 35° ENE
[s.n.72191] 4.5 23:15:40 10° NW 23:19:55 52° NNE 23:21:25 35° ENE
[s.n.72167] 4.5 23:15:40 10° NW 23:19:55 52° NNE 23:21:25 35° ENE
[s.n.72190] 4.5 23:15:41 10° NW 23:19:56 52° NNE 23:21:25 35° ENE
[s.n.72188] 4.5 23:15:41 10° NW 23:19:56 52° NNE 23:21:26 35° ENE
[s.n.72187] 4.5 23:15:41 10° NW 23:19:56 52° NNE 23:21:26 35° ENE
[s.n.72173] 4.5 23:15:41 10° NW 23:19:56 52° NNE 23:21:26 35° ENE
[s.n.72139] 4.5 23:15:42 10° NW 23:19:57 52° NNE 23:21:26 35° ENE
[s.n.72224] 4.5 23:15:42 10° NW 23:19:57 52° NNE 23:21:26 35° ENE
[s.n.72063] 4.5 23:15:42 10° NW 23:19:57 52° NNE 23:21:27 35° ENE
[s.n.72217] 4.5 23:15:42 10° NW 23:19:57 52° NNE 23:21:27 35° ENE
[s.n.72231] 4.5 23:15:42 10° NW 23:19:57 52° NNE 23:21:27 35° ENE
[s.n.72244] 4.5 23:15:42 10° NW 23:19:57 52° NNE 23:21:27 35° ENE
[s.n.72232] 4.5 23:15:43 10° NW 23:19:58 52° NNE 23:21:27 35° ENE
[s.n.72275] 4.5 23:15:43 10° NW 23:19:58 52° NNE 23:21:27 35° ENE
[s.n.72233] 4.5 23:15:43 10° NW 23:19:58 52° NNE 23:21:28 35° ENE
[s.n.72276] 4.5 23:15:44 10° NW 23:19:59 52° NNE 23:21:28 35° ENE
[s.n.72245] 4.5 23:15:44 10° NW 23:19:59 52° NNE 23:21:28 35° ENE
[s.n.72235] 4.5 23:15:44 10° NW 23:19:59 52° NNE 23:21:28 35° ENE
[s.n.72227] 4.5 23:15:44 10° NW 23:19:59 52° NNE 23:21:28 35° ENE
[s.n.72274] 4.5 23:15:44 10° NW 23:19:59 52° NNE 23:21:29 35° ENE
[s.n.72236] 4.5 23:15:45 10° NW 23:20:00 52° NNE 23:21:29 35° ENE
[s.n.72228] 4.5 23:15:45 10° NW 23:20:00 52° NNE 23:21:29 35° ENE
[s.n.72234] 4.5 23:15:45 10° NW 23:20:00 52° NNE 23:21:29 35° ENE
[s.n.72186] 4.5 23:15:45 10° NW 23:20:00 52° NNE 23:21:30 35° ENE
[s.n.72251] 4.5 23:15:46 10° NW 23:20:01 52° NNE 23:21:30 35° ENE
[s.n.72225] 4.5 23:15:46 10° NW 23:20:01 52° NNE 23:21:31 35° ENE
Cosmos 494 Rocket 4.0 23:14:54 10° NNW 23:20:02 64° WSW 23:20:30 60° SW
[s.n.72713] 4.5 23:15:47 10° NW 23:20:02 52° NNE 23:21:31 35° ENE
[s.n.72714] 4.5 23:15:47 10° NW 23:20:02 52° NNE 23:21:31 35° ENE
Cosmos 1378 3.6 23:22:00 58° N 23:22:00 58° N 23:25:04 10° N
Cosmos 2242 Rocket 4.2 23:21:30 44° W 23:22:02 47° WNW 23:26:23 10° N
Cosmos 1066 Rocket 4.2 23:22:33 59° SSE 23:23:32 72° E 23:29:07 10° NNE
COBE Rocket 3.9 23:26:12 68° SSE 23:26:52 87° ENE 23:32:05 10° NNW
Okean 2 Rocket 3.5 23:23:46 10° N 23:28:04 50° ENE 23:28:09 50° E
Meteor 1-15 Rocket 4.3 23:23:01 10° N 23:28:46 71° ENE 23:30:02 54° SE
Cosmos 2239 Rocket 4.5 23:23:25 10° N 23:29:45 80° W 23:31:22 53° S
Cosmos 2151 Rocket 4.3 23:25:46 10° N 23:30:05 42° ENE 23:30:21 41° E
Cosmos 2227 Rocket 4.1 23:28:34 10° N 23:33:06 24° NE 23:37:37 10° E
Okean 1-7 3.9 23:33:20 37° W 23:33:44 38° WNW 23:37:45 10° N
Cosmos 44 Rocket 3.4 23:29:33 10° NW 23:34:44 66° WSW 23:34:54 65° SW
Cosmos 2297 Rocket 3.7 23:30:30 10° N 23:35:29 30° NE 23:39:09 16° ESE
SAR-Lupe-2 4.3 23:32:46 10° NNE 23:35:36 53° N 23:35:36 53° N
Cosmos 1766 3.9 23:33:30 10° N 23:36:58 50° NE 23:36:58 50° NE
Cosmos 1782 Rocket 4.4 23:37:06 10° NNW 23:41:12 40° W 23:41:12 40° W
NOSS 2-1 (C) 4.2 23:38:59 10° NW 23:43:58 76° SW 23:45:14 57° SSE
Cosmos 1125 Rocket 4.2 23:44:32 36° WSW 23:46:07 47° WNW 23:51:10 10° NNE
COSMOS 2487 3.7 23:43:56 10° NNW 23:46:11 39° NNW 23:46:11 39° NNW
ATLAS CENTAUR R/B 3.1 23:46:20 21° WNW 23:47:34 25° NW 23:50:50 10° NNE
NOSS 2-1 (D) 4.2 23:45:52 10° NW 23:50:52 69° SW 23:51:54 58° S
Cosmos 1934 Rocket 3.9 23:46:00 10° N 23:52:08 79° W 23:53:27 56° SSW
Cosmos 1378 Rocket 4.4 23:53:20 39° E 23:53:20 39° E 23:57:10 10° NNE
